Regional Weather Roundup
Issued by NWS Charleston, WV

Home | Current Version | Previous Version | Graphics & Text | Print | Product List | Glossary On
Versions: 1 2 3 4 5 6 7 8 9 10 11 12 13 14 15 16 17 18 19 20 21 22 23 24 25 26 27 28 29 30 31 32 33 34 35 36 37 38 39 40 41 42 43 44 45 46 47 48 49 50
000
ASUS41 KRLX 050410
RWRRLX
West Virginia Regional Weather Roundup
National Weather Service Charleston WV
1200 AM EDT SAT SEP 05 2015

Note: "fair" indicates few or no clouds below 12,000 feet with no
significant weather and/or obstructions to visibility.

WVZ003-050500-
Northern Panhandle of West Virginia

CITY           SKY/WX    TMP DP  RH WIND       PRES   REMARKS
WHEELING       PTCLDY    71  63  75 CALM      30.13R
$$

WVZ009-050500-
Northwest West Virginia

CITY           SKY/WX    TMP DP  RH WIND       PRES   REMARKS
PARKERSBURG    PTCLDY    69  66  90 CALM      30.13R
$$

WVZ006-050500-
Western West Virginia

CITY           SKY/WX    TMP DP  RH WIND       PRES   REMARKS
HUNTINGTON     PTCLDY    70  67  90 N12G17    30.12R
$$

WVZ015-050500-
West Central West Virginia

CITY           SKY/WX    TMP DP  RH WIND       PRES   REMARKS
CHARLESTON     MOCLDY    72  69  90 CALM      30.10F
$$

WVZ022-031-050500-
North Central West Virginia

CITY           SKY/WX    TMP DP  RH WIND       PRES   REMARKS
CLARKSBURG     CLOUDY    68  63  84 CALM      30.13S
MORGANTOWN     PTCLDY    71  64  78 CALM      30.14S
$$

WVZ025-035-042-045-050500-
Southern West Virginia

CITY           SKY/WX    TMP DP  RH WIND       PRES   REMARKS
BECKLEY        FOG       64  62  93 E5        30.19F VSB 1
LOGAN            N/A     73  59  60 CALM      30.13F
BLUEFIELD      CLOUDY    68  63  84 E5        30.21F
LEWISBURG      MOCLDY    65  63  93 CALM      30.20S FOG
$$

WVZ047-050500-
Northern Mountains of West Virginia

CITY           SKY/WX    TMP DP  RH WIND       PRES   REMARKS
ELKINS         MOCLDY    66  63  90 CALM      30.18F FOG
$$

WVZ052-050500-
Eastern Panhandle of West Virginia

CITY           SKY/WX    TMP DP  RH WIND       PRES   REMARKS
MARTINSBURG    MOCLDY    73  70  90 N3        30.15S FOG
PETERSBURG     MOCLDY    68  67  98 CALM      30.16S FOG
$$


USA.gov is the U.S. government's official web portal to all federal, state and local government web resources and services.